Date String (YYYY-MM-DD hh:mm:ss) UTC,Instrument flags,absolute air pressure of the measurement (hPa),sample flow rate (lpm),inlet stack bypass flow (lpm),air temperature of the measurement (°C),ambient temperature measured by the external sensor (°C),aerosol sample conditioner tube jacket temperature (°C),OPC LED temperature (°C),internal box temperature (°C),relative humidity of the measurement (%),span deviation,mass concentration of particles derived from Lorenz-Mie calculation of OPC scattering (μg/m³),mass concentration of particles derived from Lorenz-Mie calculation of OPC scattering (μg/m³),mass concentration of particles derived from Lorenz-Mie calculation of OPC scattering (μg/m³)
DateTimeUTC,F1_M11,P_M11,Q1_M11,Q2_M11,T1_M11,T2_M11,T3_M11,T4_M11,T5_M11,U1_M11,ZSPAN_M11,X0_M11,X2_M11,X1_M11
2024-05-20 02:00:00,SystemResetWarning,0823.9,4.99,000.00,024.2,022.9,000.0,032.3,025.6,022.4,0000.0,0011.02,0003.51,0002.54
2024-05-20 02:01:00,SystemResetWarning,0823.9,5.02,000.00,023.8,021.2,000.0,032.3,024.8,023.0,0000.0,0010.37,0003.56,0002.56
2024-05-20 02:02:00,SystemResetWarning,0824.0,5.00,000.00,023.7,021.4,000.0,032.3,024.8,023.4,0000.0,0010.75,0003.56,0002.53
2024-05-20 02:03:00,SystemResetWarning,0824.1,4.98,000.00,023.7,021.8,000.0,032.2,025.0,023.6,0000.0,0010.98,0003.56,0002.51
2024-05-20 02:04:00,SystemResetWarning,0824.3,5.00,000.00,023.7,022.1,000.0,032.2,025.2,023.7,0000.0,0010.56,0003.57,0002.51
2024-05-20 02:05:00,SystemResetWarning,0824.2,5.01,000.00,023.8,022.5,000.0,032.1,025.5,023.8,0000.0,0010.27,0003.56,0002.49
2024-05-20 02:06:00,SystemResetWarning,0824.3,5.00,000.00,023.8,022.8,000.0,032.1,025.6,023.8,0000.0,0009.94,0003.51,0002.46
2024-05-20 02:07:00,SystemResetWarning,0824.3,5.00,000.00,023.9,023.0,000.0,032.1,025.7,023.9,0000.0,0009.61,0003.53,0002.42
2024-05-20 02:08:00,SystemResetWarning,0824.3,5.00,000.00,023.9,023.2,000.0,032.1,025.8,024.1,0000.0,0009.76,0003.49,0002.37
2024-05-20 02:09:00,SystemResetWarning,0824.2,5.00,000.00,024.0,023.4,000.0,032.2,025.9,023.9,0000.0,0009.88,0003.44,0002.31
2024-05-20 02:10:00,SystemResetWarning,0824.2,5.00,000.00,024.1,023.6,000.0,032.2,026.0,024.0,0000.0,0009.90,0003.42,0002.27
2024-05-20 02:11:00,SystemResetWarning,0824.2,5.00,000.00,024.1,023.7,000.0,032.2,026.1,024.0,0000.0,0009.33,0003.39,0002.22
2024-05-20 02:12:00,SystemResetWarning,0824.3,5.00,000.00,024.2,023.8,000.0,032.3,026.2,023.8,0000.0,0009.14,0003.32,0002.16
2024-05-20 02:13:00,SystemResetWarning,0824.2,4.99,000.00,024.2,023.6,000.0,032.3,026.0,023.8,0000.0,0008.34,0003.26,0002.13
2024-05-20 02:14:00,SystemResetWarning,0824.2,5.01,000.00,024.0,021.6,000.0,032.4,025.0,024.2,0000.0,0007.65,0003.20,0002.07
2024-05-20 02:15:00,SystemResetWarning,0824.2,5.01,000.00,023.7,021.3,000.0,032.4,024.8,024.4,0000.0,0007.54,0003.12,0001.99
2024-05-20 02:16:00,SystemResetWarning,0824.2,4.98,000.00,023.7,021.6,000.0,032.3,024.9,024.6,0000.0,0007.74,0003.06,0001.93
2024-05-20 02:17:00,SystemResetWarning,0824.2,5.00,000.00,023.7,022.0,000.0,032.2,025.1,024.5,0000.0,0008.36,0003.04,0001.89
2024-05-20 02:18:00,SystemResetWarning,0824.1,5.02,000.00,023.7,022.3,000.0,032.2,025.3,024.3,0000.0,0008.10,0002.92,0001.86
2024-05-20 02:19:00,SystemResetWarning,0824.0,5.00,000.00,023.8,022.6,000.0,032.1,025.5,024.2,0000.0,0008.02,0002.83,0001.83
2024-05-20 02:20:00,SystemResetWarning,0824.0,4.99,000.00,023.8,022.9,000.0,032.1,025.6,024.1,0000.0,0007.74,0002.78,0001.80
2024-05-20 02:21:00,SystemResetWarning,0823.9,5.00,000.00,023.9,023.1,000.0,032.1,025.7,024.1,0000.0,0007.71,0002.73,0001.77
2024-05-20 02:22:00,SystemResetWarning,0823.9,5.00,000.00,024.0,023.3,000.0,032.1,025.9,024.0,0000.0,0007.44,0002.62,0001.73
2024-05-20 02:23:00,SystemResetWarning,0823.8,5.00,000.00,024.1,023.5,000.0,032.1,026.0,023.9,0000.0,0007.32,0002.54,0001.70
2024-05-20 02:24:00,SystemResetWarning,0823.7,5.00,000.00,024.1,023.6,000.0,032.2,026.1,023.7,0000.0,0007.28,0002.49,0001.67
2024-05-20 02:25:00,SystemResetWarning,0823.8,4.99,000.00,024.2,023.7,000.0,032.2,026.2,023.4,0000.0,0007.20,0002.48,0001.65
2024-05-20 02:26:00,SystemResetWarning,0823.8,4.99,000.00,024.3,023.8,000.0,032.2,026.2,023.0,0000.0,0007.17,0002.44,0001.64
2024-05-20 02:27:00,SystemResetWarning,0823.8,5.01,000.00,024.4,024.0,000.0,032.3,026.3,022.9,0000.0,0006.72,0002.38,0001.62
2024-05-20 02:28:00,SystemResetWarning,0823.8,5.00,000.00,024.4,023.6,000.0,032.3,026.0,023.0,0000.0,0005.39,0002.33,0001.60
2024-05-20 02:29:00,SystemResetWarning,0823.7,5.00,000.00,024.1,021.7,000.0,032.4,025.0,023.4,0000.0,0005.55,0002.36,0001.59
2024-05-20 02:30:00,SystemResetWarning,0823.6,5.02,000.00,023.8,021.4,000.0,032.4,024.8,023.7,0000.0,0004.84,0002.37,0001.58
2024-05-20 02:31:00,SystemResetWarning,0823.7,5.00,000.00,023.8,021.7,000.0,032.3,025.0,023.8,0000.0,0004.51,0002.34,0001.57
2024-05-20 02:32:00,SystemResetWarning,0823.7,5.00,000.00,023.8,022.1,000.0,032.2,025.2,023.8,0000.0,0004.43,0002.31,0001.57
2024-05-20 02:33:00,SystemResetWarning,0823.7,5.01,000.00,023.9,022.4,000.0,032.2,025.5,023.6,0000.0,0004.30,0002.26,0001.56
2024-05-20 02:34:00,SystemResetWarning,0823.7,4.99,000.00,023.9,022.7,000.0,032.1,025.6,023.5,0000.0,0004.17,0002.24,0001.55
2024-05-20 02:35:00,SystemResetWarning,0823.6,5.00,000.00,024.0,023.0,000.0,032.1,025.7,023.4,0000.0,0004.18,0002.23,0001.55
2024-05-20 02:36:00,SystemResetWarning,0823.6,5.00,000.00,024.0,023.2,000.0,032.1,025.9,023.2,0000.0,0004.20,0002.26,0001.56
2024-05-20 02:37:00,SystemResetWarning,0823.6,5.00,000.00,024.1,023.4,000.0,032.2,026.0,022.9,0000.0,0004.04,0002.26,0001.57
2024-05-20 02:38:00,SystemResetWarning,0823.6,5.00,000.00,024.2,023.5,000.0,032.2,026.1,022.7,0000.0,0003.89,0002.23,0001.58
2024-05-20 02:39:00,SystemResetWarning,0823.6,5.00,000.00,024.2,023.7,000.0,032.2,026.2,022.6,0000.0,0003.75,0002.22,0001.57
2024-05-20 02:40:00,SystemResetWarning,0823.6,5.00,000.00,024.3,023.8,000.0,032.2,026.3,022.5,0000.0,0003.99,0002.22,0001.57
2024-05-20 02:41:00,SystemResetWarning,0823.6,4.99,000.00,024.4,023.9,000.0,032.3,026.3,022.3,0000.0,0004.28,0002.26,0001.57
2024-05-20 02:42:00,SystemResetWarning,0823.6,4.99,000.00,024.4,024.0,000.0,032.3,026.4,022.3,0000.0,0004.13,0002.22,0001.57
2024-05-20 02:43:00,SystemResetWarning,0823.6,5.00,000.00,024.5,024.1,000.0,032.4,026.4,022.2,0000.0,0004.01,0002.21,0001.57
2024-05-20 02:44:00,SystemResetWarning,0823.5,5.00,000.00,024.5,023.7,000.0,032.4,026.2,022.0,0000.0,0004.07,0002.23,0001.56
2024-05-20 02:45:00,SystemResetWarning,0823.5,5.00,000.00,024.2,021.7,000.0,032.5,025.2,022.1,0000.0,0004.22,0002.26,0001.56
2024-05-20 02:46:00,SystemResetWarning,0823.4,5.01,000.00,024.0,021.5,000.0,032.5,024.9,022.5,0000.0,0004.30,0002.29,0001.55
2024-05-20 02:47:00,SystemResetWarning,0823.4,4.99,000.00,023.9,021.8,000.0,032.4,025.0,022.7,0000.0,0004.35,0002.29,0001.53
2024-05-20 02:48:00,SystemResetWarning,0823.5,4.99,000.00,023.9,022.1,000.0,032.3,025.3,022.7,0000.0,0004.36,0002.27,0001.51
2024-05-20 02:49:00,SystemResetWarning,0823.5,5.01,000.00,023.9,022.4,000.0,032.3,025.5,022.7,0000.0,0004.46,0002.28,0001.49
2024-05-20 02:50:00,SystemResetWarning,0823.5,5.01,000.00,024.0,022.7,000.0,032.2,025.7,022.6,0000.0,0004.45,0002.25,0001.49
2024-05-20 02:51:00,SystemResetWarning,0823.5,5.00,000.00,024.1,023.0,000.0,032.2,025.9,022.5,0000.0,0004.00,0002.20,0001.49
2024-05-20 02:52:00,SystemResetWarning,0823.5,4.99,000.00,024.1,023.2,000.0,032.2,026.0,022.5,0000.0,0003.68,0002.15,0001.49
2024-05-20 02:53:00,SystemResetWarning,0823.6,5.00,000.00,024.2,023.4,000.0,032.2,026.1,022.3,0000.0,0003.70,0002.15,0001.47
2024-05-20 02:54:00,SystemResetWarning,0823.6,5.00,000.00,024.2,023.5,000.0,032.3,026.1,022.1,0000.0,0003.61,0002.12,0001.45
2024-05-20 02:55:00,SystemResetWarning,0823.6,5.00,000.00,024.3,023.7,000.0,032.3,026.2,022.1,0000.0,0003.95,0002.14,0001.45
2024-05-20 02:56:00,SystemResetWarning,0823.7,5.01,000.00,024.4,023.8,000.0,032.3,026.3,022.0,0000.0,0004.14,0002.15,0001.45
2024-05-20 02:57:00,SystemResetWarning,0823.7,5.00,000.00,024.4,023.9,000.0,032.3,026.4,021.9,0000.0,0004.31,0002.16,0001.46
2024-05-20 02:58:00,SystemResetWarning,0823.7,4.99,000.00,024.5,024.0,000.0,032.4,026.4,021.6,0000.0,0004.29,0002.15,0001.46
2024-05-20 02:59:00,SystemResetWarning,0823.7,5.00,000.00,024.5,024.1,000.0,032.4,026.5,021.5,0000.0,0004.40,0002.19,0001.47
